Regional Weather Roundup
Issued by NWS

Home | Current Version | Previous Version | Text Only | Print | Product List | Glossary Off
Versions: 1 2 3 4 5 6 7 8 9 10 11 12 13 14 15 16 17 18 19 20 21 22 23 24 25 26 27 28 29 30 31 32 33 34 35 36 37 38 39 40 41 42 43 44 45 46 47 48 49 50

000
ASUS43 KMPX 272310
RWRMN
WEATHER ROUNDUP FOR MINNESOTA
NATIONAL WEATHER SERVICE TWIN CITIES/CHANHASSEN MN
600 PM CDT WED MAY 27 2015


NOTE: "FAIR" INDICATES FEW OR NO CLOUDS BELOW 12,000 FEET WITH NO
SIGNIFICANT WEATHER AND/OR OBSTRUCTIONS TO VISIBILITY. N/A MEANS
CURRENT SKY AND/OR WEATHER CONDITIONS ARE NOT AVAILABLE.

MNZ060>063-068>070-280000-
   Twin Cities Metro

CITY           SKY/WX    TMP DP  RH WIND       PRES   REMARKS
TWIN CITIES    MOSUNNY   84  51  31 W10       29.96S
ST PAUL        MOSUNNY   83  53  35 W10       29.95F
CRYSTAL        SUNNY     84  51  31 NW9       29.94F
BLAINE         MOSUNNY   84  52  32 W10       29.96S
LAKEVILLE      SUNNY     81  55  41 W6        29.97F
EDEN PRAIRIE   SUNNY     82  54  37 W7        29.95F
SOUTH ST PAUL  SUNNY     83  50  31 W7        29.95F
LAKE ELMO      FAIR      81  54  39 W9        29.97S
$$
MNZ001>005-007-008-013>017-022>024-027-028-280000-
   Northwest Minnesota

CITY           SKY/WX    TMP DP  RH WIND       PRES   REMARKS
BEMIDJI        SUNNY     77  50  38 NW7       29.96F
HALLOCK        SUNNY     72  43  35 NE6       29.97S
ROSEAU         SUNNY     73  43  33 NW6       29.97S
WARROAD        SUNNY     66  52  59 E12G18    29.99S
THIEF RVR FALL SUNNY     75  50  41 N8        29.97S
CROOKSTON      SUNNY     77  48  36 N5        29.96S
FOSSTON        SUNNY     81  50  34 NW5       29.96F
DETROIT LAKES  MOSUNNY   79  46  31 NW3       29.98F
MOORHEAD       SUNNY     81  48  32 N5        29.95S
PARK RAPIDS    SUNNY     82  47  29 W13       29.95F
MAHNOMEN       FAIR      78  48  34 NW3       29.96S
$$
MNZ006-009>011-018-025>026-280000-
   North Central Minnesota

CITY           SKY/WX    TMP DP  RH WIND       PRES   REMARKS
BAUDETTE       SUNNY     70  46  42 N7        29.98S
FLAG ISLAND    SUNNY     66  46  48 NE9       29.98F
INTL FALLS     SUNNY     73  46  38 N10       29.96R
WASKISH        SUNNY     73  52  46 N9        29.97R
BIG FORK       SUNNY    N/A N/A N/A NW3       29.95S
LONGVILLE      SUNNY     79  46  31 W6        29.95F
GRAND RAPIDS   SUNNY     79  48  34 NW9       29.95F
CRANE LAKE     SUNNY     73  48  40 N9G17     29.96R
ORR            SUNNY     75  45  33 NW8G18    29.92R
COOK           SUNNY     77  48  36 NW9G16    29.94R
WALKER         FAIR      79  47  32 W8        29.95S
$$
MNZ012-019>021-037-280000-
   Northeast Minnesota

CITY           SKY/WX    TMP DP  RH WIND       PRES   REMARKS
DULUTH         MOSUNNY   77  49  37 N6        29.93R
HIBBING        MOSUNNY   80  46  30 W7        29.93R
EVELETH        MOSUNNY   77  43  29 W14       29.94S
DULUTH HARBOR  MOSUNNY   68  52  56 N17       29.90R
TWO HARBORS    MOSUNNY   81  54  39 W3        29.89S
SILVER BAY     MOSUNNY   82  45  26 W5        29.88S
GRAND MARAIS     N/A     79  47  32 VRB3      29.86S
G MARAIS ARPRT MOSUNNY   72  45  37 W3        29.93S
$$
MNZ029>031-032-039>041-046>048-054>057-064-280000-
   West Central Minnesota

CITY           SKY/WX    TMP DP  RH WIND       PRES   REMARKS
FERGUS FALLS   MOSUNNY   81  50  34 N3        29.94F
WHEATON        SUNNY     81  45  28 CALM      29.96F
MORRIS         SUNNY     84  48  28 NW6       29.95F
ALEXANDRIA     SUNNY     81  49  32 W7        29.98F
ELBOW LAKE     FAIR      80  49  34 N3        29.96F
WADENA         SUNNY     81  52  36 NW6       29.96F
GLENWOOD       SUNNY     81  48  32 W3        29.99S
APPLETON       MOSUNNY   84  45  24 W5        29.96S
BENSON         SUNNY     82  43  24 W3        29.96F
ORTONVILLE     MOSUNNY   81  46  30 CALM      29.96F
MADISON        PTSUNNY   82  46  28 N5        29.96F
WILLMAR          N/A     84  46  26 W6        29.98S
$$
MNZ033>034-036-042>043-049>051-058-059-280000-
   Central Minnesota

CITY           SKY/WX    TMP DP  RH WIND       PRES   REMARKS
ST CLOUD       SUNNY     81  54  39 NW5       29.95S
SAUK CENTRE    FAIR      81  51  35 NW8       29.97S
PAYNESVILLE    SUNNY     78  50  37 W6G18     29.97F
AITKIN         SUNNY     82  43  24 N3        29.93S
PINE RIVER     SUNNY     81  52  36 NW6       29.97F
BRAINERD       SUNNY     81  47  30 W7        29.95S
STAPLES        SUNNY     81  45  28 W9        29.96S
LONG PRAIRIE   FAIR      81  48  32 SW7       29.97S
LITTLE FALLS   SUNNY     81  43  26 W7        29.96S
LITCHFIELD     SUNNY     84  45  24 W5        29.97S
BUFFALO        SUNNY     82  48  29 SW6       29.97S
MAPLE LAKE     SUNNY     83  51  33 W3        29.97F
$$
MNZ037-044-045-052-053-280000-
   East Central Minnesota

CITY           SKY/WX    TMP DP  RH WIND       PRES   REMARKS
PRINCETON      SUNNY     82  52  34 W5        29.96S
MORA           SUNNY     77  46  33 NW6       29.97S
CAMBRIDGE      MOSUNNY   84  59  42 W7        29.94S
RUSH CITY      MOSUNNY   78  53  40 SW3       29.95S
MOOSE LAKE     SUNNY     81  55  41 N7        29.91S
HINCKLEY       FAIR      81  52  36 W7        29.94S
CLOQUET        SUNNY     81  39  22 NW8       29.93S
MCGREGOR       SUNNY     81  45  28 W6        29.94F
$$
MNZ071>073-080-081-089-090-097-098-280000-
   Southwest Minnesota

CITY           SKY/WX    TMP DP  RH WIND       PRES   REMARKS
MONTEVIDEO     MOSUNNY   84  46  26 N3        29.97F
GRANITE FALLS  MOSUNNY   84  45  25 CALM      29.98S
CANBY          PTSUNNY   81  42  25 W5        29.99S
MARSHALL       MOSUNNY   82  46  28 N5        29.97F
REDWOOD FALLS  MOSUNNY   86  45  23 CALM      29.96F
OLIVIA         SUNNY     81  43  26 W5        29.97S
PIPESTONE      MOSUNNY   81  43  26 W5        30.01S
WINDOM         MOSUNNY   82  46  28 CALM      30.00F
WORTHINGTON    MOSUNNY   81  45  28 SW6       30.01S
JACKSON        MOSUNNY   81  46  30 W3        30.01F
TRACY          MOSUNNY   83  45  26 SW7       29.99F
SLAYTON        MOSUNNY   83  38  20 CALM      30.01F
$$
MNZ065>067-074>077-082>085-091>093-280000-
   South Central Minnesota

CITY           SKY/WX    TMP DP  RH WIND       PRES   REMARKS
MANKATO        SUNNY     82  48  30 SW7       29.98F
NEW ULM        MOSUNNY   82  48  30 CALM      29.98S
ST JAMES       MOSUNNY   84  48  28 CALM      29.99F
FAIRMONT       MOSUNNY   86  45  23 NW5       30.00S
GLENCOE        MOSUNNY   84  54  35 W6        29.96F
FARIBAULT      SUNNY     81  54  39 W7        29.99S
OWATONNA       SUNNY     81  52  36 W7        29.99F
WASECA         SUNNY     79  50  36 W6        30.01S
ALBERT LEA     SUNNY     82  52  34 SW5       30.01S
$$
MNZ078>079-086>088-094>096-280000-
   Southeast Minnesota

CITY           SKY/WX    TMP DP  RH WIND       PRES   REMARKS
ROCHESTER      SUNNY     79  59  50 W13       30.01F
RED WING       SUNNY     82  52  34 W9        29.95F
STANTON        SUNNY     82  54  38 W9        29.96F
DODGE CENTER   SUNNY     81  55  41 W10       30.01S
WINONA         SUNNY     81  55  41 W6        29.98S
AUSTIN         SUNNY     79  55  44 W6        30.01S
PRESTON        SUNNY     77  57  49 W8        30.02F
$$
ABBREVIATIONS USED IN REMARKS
   TC - TEMPERATURES IN CELSIUS
  WCI - WIND CHILL INDEX
   HX - HEAT INDEX
  VSB - VISIBILITY
$$



USA.gov is the U.S. government's official web portal to all federal, state and local government web resources and services.